Time,TemperatureF,DewpointF,PressureIn,WindDirection,WindDirectionDegrees,WindSpeedMPH,WindSpeedGustMPH,Humidity,HourlyPrecipIn,Conditions,Clouds,dailyrainin,SoftwareType,DateUTC
2013-10-22 00:01:00,52.9,47.9,29.41,North,357,8.1,10.7,83,0.00,,---,0.00,VWS V14.00,2013-10-22 05:01:00,
2013-10-22 00:06:00,52.7,47.7,29.41,North,0,6.0,8.2,83,0.00,,---,0.00,VWS V14.00,2013-10-22 05:06:00,
2013-10-22 00:11:00,52.7,47.7,29.41,North,3,5.4,7.4,83,0.00,,---,0.00,VWS V14.00,2013-10-22 05:11:00,
2013-10-22 00:16:00,52.7,47.7,29.41,North,0,8.1,10.7,83,0.00,,---,0.00,VWS V14.00,2013-10-22 05:16:00,
2013-10-22 00:21:00,52.5,47.5,29.41,North,5,8.7,11.5,83,0.00,,---,0.00,VWS V14.00,2013-10-22 05:21:00,
2013-10-22 00:26:00,52.3,47.3,29.41,North,7,6.7,10.7,83,0.00,,---,0.00,VWS V14.00,2013-10-22 05:26:00,
2013-10-22 00:31:00,52.2,47.2,29.41,North,353,10.7,13.9,83,0.00,,---,0.00,VWS V14.00,2013-10-22 05:31:00,
2013-10-22 00:36:00,52.0,47.0,29.41,North,4,8.1,10.7,83,0.00,,---,0.00,VWS V14.00,2013-10-22 05:36:00,
2013-10-22 00:41:00,51.8,46.8,29.41,North,353,11.4,14.7,83,0.00,,---,0.00,VWS V14.00,2013-10-22 05:41:00,
2013-10-22 00:46:00,51.6,47.0,29.41,NNE,12,8.7,11.5,84,0.00,,---,0.00,VWS V14.00,2013-10-22 05:46:00,
2013-10-22 00:51:00,51.6,47.0,29.41,North,357,8.1,10.7,84,0.00,,---,0.00,VWS V14.00,2013-10-22 05:51:00,
2013-10-22 00:56:00,51.4,46.8,29.41,North,357,9.4,12.3,84,0.00,,---,0.00,VWS V14.00,2013-10-22 05:56:00,
2013-10-22 01:01:00,51.3,46.6,29.41,North,9,5.4,7.4,84,0.00,,---,0.00,VWS V14.00,2013-10-22 06:01:00,
2013-10-22 01:06:00,51.3,46.6,29.41,North,357,4.7,6.6,84,0.00,,---,0.00,VWS V14.00,2013-10-22 06:06:00,
2013-10-22 01:11:00,51.1,46.4,29.41,North,4,5.4,7.4,84,0.00,,---,0.00,VWS V14.00,2013-10-22 06:11:00,
2013-10-22 01:16:00,51.1,46.4,29.41,North,350,6.0,8.2,84,0.00,,---,0.00,VWS V14.00,2013-10-22 06:16:00,
2013-10-22 01:21:00,50.9,46.2,29.44,North,353,6.7,9.1,84,0.00,,---,0.00,VWS V14.00,2013-10-22 06:21:00,
2013-10-22 01:26:00,50.9,46.2,29.44,NNE,26,5.4,7.4,84,0.00,,---,0.00,VWS V14.00,2013-10-22 06:26:00,
2013-10-22 01:31:00,50.7,46.1,29.44,North,353,10.1,13.1,84,0.00,,---,0.00,VWS V14.00,2013-10-22 06:31:00,
2013-10-22 01:36:00,50.7,46.1,29.44,North,9,8.1,10.7,84,0.00,,---,0.00,VWS V14.00,2013-10-22 06:36:00,
2013-10-22 01:41:00,50.5,45.9,29.44,North,353,9.4,12.3,84,0.00,,---,0.00,VWS V14.00,2013-10-22 06:41:00,
2013-10-22 01:46:00,50.5,45.9,29.44,North,353,8.7,11.5,84,0.00,,---,0.00,VWS V14.00,2013-10-22 06:46:00,
2013-10-22 01:51:00,50.2,45.5,29.44,North,3,8.1,10.7,84,0.00,,---,0.00,VWS V14.00,2013-10-22 06:51:00,
2013-10-22 01:56:00,49.8,45.2,29.44,NNE,20,10.1,13.1,84,0.00,,---,0.00,VWS V14.00,2013-10-22 06:56:00,
2013-10-22 02:01:00,49.6,45.0,29.44,NNE,12,12.1,15.5,84,0.00,,---,0.00,VWS V14.00,2013-10-22 07:01:00,
2013-10-22 02:06:00,49.6,45.0,29.44,NNE,19,15.8,19.9,84,0.00,,---,0.00,VWS V14.00,2013-10-22 07:06:00,
2013-10-22 02:11:00,49.5,44.5,29.44,NNE,17,9.4,12.3,83,0.00,,---,0.00,VWS V14.00,2013-10-22 07:11:00,
2013-10-22 02:16:00,49.3,43.4,29.44,North,353,8.7,12.3,80,0.00,,---,0.00,VWS V14.00,2013-10-22 07:16:00,
2013-10-22 02:21:00,49.3,42.7,29.44,North,357,8.1,10.7,78,0.00,,---,0.00,VWS V14.00,2013-10-22 07:21:00,
2013-10-22 02:26:00,49.1,42.2,29.44,NNE,19,8.1,10.7,77,0.00,,---,0.00,VWS V14.00,2013-10-22 07:26:00,
2013-10-22 02:31:00,49.1,41.9,29.44,North,7,8.1,10.7,76,0.00,,---,0.00,VWS V14.00,2013-10-22 07:31:00,
2013-10-22 02:36:00,48.9,41.7,29.44,North,357,6.0,12.3,76,0.00,,---,0.00,VWS V14.00,2013-10-22 07:36:00,
2013-10-22 02:41:00,48.7,41.5,29.44,NNE,17,8.7,11.5,76,0.00,,---,0.00,VWS V14.00,2013-10-22 07:41:00,
2013-10-22 02:46:00,48.7,41.2,29.44,North,353,6.0,8.2,75,0.00,,---,0.00,VWS V14.00,2013-10-22 07:46:00,
2013-10-22 02:51:00,48.7,41.2,29.44,NNW,343,6.0,8.2,75,0.00,,---,0.00,VWS V14.00,2013-10-22 07:51:00,
2013-10-22 02:56:00,48.6,41.0,29.44,North,9,5.4,7.4,75,0.00,,---,0.00,VWS V14.00,2013-10-22 07:56:00,
2013-10-22 03:01:00,48.6,41.0,29.44,North,8,9.4,12.3,75,0.00,,---,0.00,VWS V14.00,2013-10-22 08:01:00,
2013-10-22 03:06:00,48.6,41.0,29.44,North,11,8.1,10.7,75,0.00,,---,0.00,VWS V14.00,2013-10-22 08:06:00,
2013-10-22 03:11:00,48.4,40.8,29.44,NNE,16,9.4,12.3,75,0.00,,---,0.00,VWS V14.00,2013-10-22 08:11:00,
2013-10-22 03:16:00,48.4,40.8,29.44,North,357,8.1,10.7,75,0.00,,---,0.00,VWS V14.00,2013-10-22 08:16:00,
2013-10-22 03:21:00,48.2,40.7,29.41,North,353,5.4,7.4,75,0.00,,---,0.00,VWS V14.00,2013-10-22 08:21:00,
2013-10-22 03:26:00,48.0,40.8,29.41,NNE,12,6.0,8.2,76,0.00,,---,0.00,VWS V14.00,2013-10-22 08:26:00,
2013-10-22 03:31:00,47.8,40.3,29.41,North,357,8.7,11.5,75,0.00,,---,0.00,VWS V14.00,2013-10-22 08:31:00,
2013-10-22 03:36:00,47.8,40.3,29.44,North,6,6.7,9.1,75,0.00,,---,0.00,VWS V14.00,2013-10-22 08:36:00,
2013-10-22 03:41:00,47.5,39.6,29.44,North,4,6.0,9.9,74,0.00,,---,0.00,VWS V14.00,2013-10-22 08:41:00,
2013-10-22 03:46:00,47.5,39.6,29.44,NNE,20,8.1,10.7,74,0.00,,---,0.00,VWS V14.00,2013-10-22 08:46:00,
2013-10-22 03:51:00,47.3,39.5,29.44,North,5,6.7,10.7,74,0.00,,---,0.00,VWS V14.00,2013-10-22 08:51:00,
2013-10-22 03:56:00,47.1,39.3,29.44,NNE,20,6.0,8.2,74,0.00,,---,0.00,VWS V14.00,2013-10-22 08:56:00,
2013-10-22 04:01:00,47.1,39.3,29.44,NNE,16,4.0,5.8,74,0.00,,---,0.00,VWS V14.00,2013-10-22 09:01:00,
2013-10-22 04:06:00,46.8,38.9,29.44,NNE,16,3.4,5.0,74,0.00,,---,0.00,VWS V14.00,2013-10-22 09:06:00,
2013-10-22 04:11:00,46.8,38.9,29.44,NNE,19,4.7,6.6,74,0.00,,---,0.00,VWS V14.00,2013-10-22 09:11:00,
2013-10-22 04:16:00,46.6,38.8,29.44,NNE,18,0.0,1.0,74,0.00,,---,0.00,VWS V14.00,2013-10-22 09:16:00,
2013-10-22 04:21:00,46.4,38.6,29.44,NNE,18,0.0,1.0,74,0.00,,---,0.00,VWS V14.00,2013-10-22 09:21:00,
2013-10-22 04:26:00,46.4,38.6,29.44,NNE,13,0.0,1.0,74,0.00,,---,0.00,VWS V14.00,2013-10-22 09:26:00,
2013-10-22 04:31:00,46.2,38.8,29.44,NNE,13,0.0,1.0,75,0.00,,---,0.00,VWS V14.00,2013-10-22 09:31:00,
2013-10-22 04:36:00,46.2,38.8,29.44,NNE,13,0.0,1.0,75,0.00,,---,0.00,VWS V14.00,2013-10-22 09:36:00,
2013-10-22 04:41:00,46.2,38.8,29.44,NNE,13,0.0,1.0,75,0.00,,---,0.00,VWS V14.00,2013-10-22 09:41:00,
2013-10-22 04:46:00,46.2,38.8,29.44,NNE,19,0.0,1.0,75,0.00,,---,0.00,VWS V14.00,2013-10-22 09:46:00,
2013-10-22 04:51:00,46.0,38.9,29.44,NNE,29,4.0,5.8,76,0.00,,---,0.00,VWS V14.00,2013-10-22 09:51:00,
2013-10-22 04:56:00,46.0,38.6,29.44,NNE,19,4.7,6.6,75,0.00,,---,0.00,VWS V14.00,2013-10-22 09:56:00,
2013-10-22 05:01:00,45.7,38.2,29.44,NNE,18,5.4,7.4,75,0.00,,---,0.00,VWS V14.00,2013-10-22 10:01:00,
2013-10-22 05:06:00,45.5,38.0,29.44,NNE,19,4.7,6.6,75,0.00,,---,0.00,VWS V14.00,2013-10-22 10:06:00,
2013-10-22 05:11:00,45.5,38.0,29.44,NNE,19,0.0,1.0,75,0.00,,---,0.00,VWS V14.00,2013-10-22 10:11:00,
2013-10-22 05:16:00,45.3,37.9,29.44,NNE,26,0.0,1.0,75,0.00,,---,0.00,VWS V14.00,2013-10-22 10:16:00,
2013-10-22 05:21:00,45.3,37.9,29.44,NNE,28,0.0,1.0,75,0.00,,---,0.00,VWS V14.00,2013-10-22 10:21:00,
2013-10-22 05:26:00,45.1,38.0,29.44,NNE,28,0.0,1.0,76,0.00,,---,0.00,VWS V14.00,2013-10-22 10:26:00,
2013-10-22 05:31:00,44.8,37.3,29.44,NNE,28,0.0,1.0,75,0.00,,---,0.00,VWS V14.00,2013-10-22 10:31:00,
2013-10-22 05:36:00,44.6,37.2,29.44,NNE,28,0.0,1.0,75,0.00,,---,0.00,VWS V14.00,2013-10-22 10:36:00,
2013-10-22 05:41:00,44.4,37.3,29.44,NNE,28,0.0,1.0,76,0.00,,---,0.00,VWS V14.00,2013-10-22 10:41:00,
2013-10-22 05:46:00,44.1,37.0,29.44,NNE,28,0.0,1.0,76,0.00,,---,0.00,VWS V14.00,2013-10-22 10:46:00,
2013-10-22 05:51:00,43.5,36.5,29.44,NNE,28,0.0,1.0,76,0.00,,---,0.00,VWS V14.00,2013-10-22 10:51:00,
2013-10-22 05:56:00,43.5,36.5,29.44,NNE,28,0.0,1.0,76,0.00,,---,0.00,VWS V14.00,2013-10-22 10:56:00,
2013-10-22 06:01:00,43.3,36.3,29.44,NNE,28,0.0,1.0,76,0.00,,---,0.00,VWS V14.00,2013-10-22 11:01:00,
2013-10-22 06:06:00,43.0,36.0,29.44,NNE,28,0.0,1.0,76,0.00,,---,0.00,VWS V14.00,2013-10-22 11:06:00,
2013-10-22 06:11:00,42.6,35.6,29.44,NNE,28,0.0,1.0,76,0.00,,---,0.00,VWS V14.00,2013-10-22 11:11:00,
2013-10-22 06:16:00,42.4,35.4,29.44,NNE,28,0.0,1.0,76,0.00,,---,0.00,VWS V14.00,2013-10-22 11:16:00,
2013-10-22 06:21:00,42.4,35.8,29.44,NNE,28,0.0,1.0,77,0.00,,---,0.00,VWS V14.00,2013-10-22 11:21:00,
2013-10-22 06:26:00,42.4,35.8,29.44,NNE,28,0.0,1.0,77,0.00,,---,0.00,VWS V14.00,2013-10-22 11:26:00,
2013-10-22 06:31:00,42.4,35.8,29.44,NNE,28,0.0,1.0,77,0.00,,---,0.00,VWS V14.00,2013-10-22 11:31:00,
2013-10-22 06:36:00,42.4,35.8,29.44,NNE,28,0.0,1.0,77,0.00,,---,0.00,VWS V14.00,2013-10-22 11:36:00,
2013-10-22 06:41:00,42.1,35.4,29.44,NNE,28,0.0,1.0,77,0.00,,---,0.00,VWS V14.00,2013-10-22 11:41:00,
2013-10-22 06:46:00,41.9,35.2,29.44,NNE,28,0.0,1.0,77,0.00,,---,0.00,VWS V14.00,2013-10-22 11:46:00,
2013-10-22 06:51:00,41.7,35.0,29.44,NNE,28,0.0,1.0,77,0.00,,---,0.00,VWS V14.00,2013-10-22 11:51:00,
2013-10-22 06:56:00,41.7,35.0,29.44,NNE,28,0.0,1.0,77,0.00,,---,0.00,VWS V14.00,2013-10-22 11:56:00,
2013-10-22 07:01:00,41.7,35.4,29.44,NNE,28,0.0,1.0,78,0.00,,---,0.00,VWS V14.00,2013-10-22 12:01:00,
2013-10-22 07:06:00,41.7,35.4,29.44,NNE,28,0.0,1.0,78,0.00,,---,0.00,VWS V14.00,2013-10-22 12:06:00,
2013-10-22 07:11:00,41.7,35.4,29.44,NNE,28,0.0,1.0,78,0.00,,---,0.00,VWS V14.00,2013-10-22 12:11:00,
2013-10-22 07:16:00,41.2,34.8,29.44,NNE,28,0.0,1.0,78,0.00,,---,0.00,VWS V14.00,2013-10-22 12:16:00,
2013-10-22 07:21:00,41.0,34.7,29.44,NNE,28,0.0,1.0,78,0.00,,---,0.00,VWS V14.00,2013-10-22 12:21:00,
2013-10-22 07:26:00,41.0,34.7,29.44,NNE,28,0.0,1.0,78,0.00,,---,0.00,VWS V14.00,2013-10-22 12:26:00,
2013-10-22 07:31:00,40.8,34.5,29.44,NNE,28,0.0,1.0,78,0.00,,---,0.00,VWS V14.00,2013-10-22 12:31:00,
2013-10-22 07:36:00,41.0,34.7,29.44,NNE,28,0.0,1.0,78,0.00,,---,0.00,VWS V14.00,2013-10-22 12:36:00,
2013-10-22 07:41:00,41.0,34.7,29.44,NNE,28,0.0,1.0,78,0.00,,---,0.00,VWS V14.00,2013-10-22 12:41:00,
2013-10-22 07:46:00,41.0,35.0,29.44,NNE,28,0.0,1.0,79,0.00,,---,0.00,VWS V14.00,2013-10-22 12:46:00,
2013-10-22 07:51:00,41.2,35.2,29.44,NNE,28,0.0,1.0,79,0.00,,---,0.00,VWS V14.00,2013-10-22 12:51:00,
2013-10-22 07:56:00,41.5,35.5,29.44,NNE,28,0.0,1.0,79,0.00,,---,0.00,VWS V14.00,2013-10-22 12:56:00,
2013-10-22 08:01:00,42.3,36.2,29.44,NE,48,0.0,1.0,79,0.00,,---,0.00,VWS V14.00,2013-10-22 13:01:00,
2013-10-22 08:06:00,42.6,36.9,29.44,NE,48,0.0,1.0,80,0.00,,---,0.00,VWS V14.00,2013-10-22 13:06:00,
2013-10-22 08:11:00,43.2,37.4,29.44,NE,48,0.0,1.0,80,0.00,,---,0.00,VWS V14.00,2013-10-22 13:11:00,
2013-10-22 08:16:00,43.5,38.1,29.44,NE,54,0.0,1.0,81,0.00,,---,0.00,VWS V14.00,2013-10-22 13:16:00,
2013-10-22 08:21:00,43.7,38.3,29.44,ENE,64,0.0,1.0,81,0.00,,---,0.00,VWS V14.00,2013-10-22 13:21:00,
2013-10-22 08:26:00,44.2,39.1,29.44,NE,55,0.0,1.0,82,0.00,,---,0.00,VWS V14.00,2013-10-22 13:26:00,
2013-10-22 08:31:00,44.4,39.3,29.44,ENE,77,4.0,5.8,82,0.00,,---,0.00,VWS V14.00,2013-10-22 13:31:00,
2013-10-22 08:36:00,45.0,39.5,29.44,ENE,76,6.0,8.2,81,0.00,,---,0.00,VWS V14.00,2013-10-22 13:36:00,
2013-10-22 08:41:00,45.5,39.4,29.44,ESE,117,3.4,5.0,79,0.00,,---,0.00,VWS V14.00,2013-10-22 13:41:00,
2013-10-22 08:46:00,46.0,39.6,29.44,East,84,4.7,6.6,78,0.00,,---,0.00,VWS V14.00,2013-10-22 13:46:00,
2013-10-22 08:51:00,46.4,39.3,29.44,ENE,76,6.0,8.2,76,0.00,,---,0.00,VWS V14.00,2013-10-22 13:51:00,
2013-10-22 08:56:00,46.6,39.1,29.44,East,97,0.0,8.2,75,0.00,,---,0.00,VWS V14.00,2013-10-22 13:56:00,
2013-10-22 09:01:00,47.3,38.7,29.44,ESE,102,5.4,7.4,72,0.00,,---,0.00,VWS V14.00,2013-10-22 14:01:00,
2013-10-22 09:06:00,47.5,38.6,29.44,SE,140,8.1,10.7,71,0.00,,---,0.00,VWS V14.00,2013-10-22 14:06:00,
2013-10-22 09:11:00,47.7,36.5,29.44,SE,131,4.0,5.8,65,0.00,,---,0.00,VWS V14.00,2013-10-22 14:11:00,
2013-10-22 09:16:00,48.0,34.4,29.44,SSE,149,7.4,10.7,59,0.00,,---,0.00,VWS V14.00,2013-10-22 14:16:00,
2013-10-22 09:21:00,48.4,33.9,29.44,SE,132,13.1,16.7,57,0.00,,---,0.00,VWS V14.00,2013-10-22 14:21:00,
2013-10-22 09:26:00,48.6,32.7,29.44,ESE,102,7.4,9.9,54,0.00,,---,0.00,VWS V14.00,2013-10-22 14:26:00,
2013-10-22 09:31:00,48.7,33.3,29.44,ESE,123,7.4,9.9,55,0.00,,---,0.00,VWS V14.00,2013-10-22 14:31:00,
2013-10-22 09:36:00,48.9,31.6,29.44,SSE,149,4.7,6.6,51,0.00,,---,0.00,VWS V14.00,2013-10-22 14:36:00,
2013-10-22 09:41:00,49.3,32.4,29.44,SSE,157,8.1,10.7,52,0.00,,---,0.00,VWS V14.00,2013-10-22 14:41:00,
2013-10-22 09:46:00,49.3,32.4,29.44,East,100,8.7,11.5,52,0.00,,---,0.00,VWS V14.00,2013-10-22 14:46:00,
2013-10-22 09:51:00,49.8,33.4,29.44,SSE,152,4.7,6.6,53,0.00,,---,0.00,VWS V14.00,2013-10-22 14:51:00,
2013-10-22 09:56:00,49.8,33.4,29.44,ESE,112,0.0,1.0,53,0.00,,---,0.00,VWS V14.00,2013-10-22 14:56:00,
2013-10-22 10:01:00,50.2,33.2,29.44,SSE,166,7.4,9.9,52,0.00,,---,0.00,VWS V14.00,2013-10-22 15:01:00,
2013-10-22 10:06:00,50.2,32.8,29.44,SE,141,8.1,10.7,51,0.00,,---,0.00,VWS V14.00,2013-10-22 15:06:00,
2013-10-22 10:11:00,50.2,32.8,29.44,ESE,102,8.1,10.7,51,0.00,,---,0.00,VWS V14.00,2013-10-22 15:11:00,
2013-10-22 10:16:00,50.5,31.6,29.44,SE,139,9.4,12.3,48,0.00,,---,0.00,VWS V14.00,2013-10-22 15:16:00,
2013-10-22 10:21:00,50.5,31.6,29.44,SSE,168,4.7,6.6,48,0.00,,---,0.00,VWS V14.00,2013-10-22 15:21:00,
2013-10-22 10:26:00,51.3,32.3,29.44,SE,139,5.4,7.4,48,0.00,,---,0.00,VWS V14.00,2013-10-22 15:26:00,
2013-10-22 10:31:00,51.4,30.3,29.44,ESE,107,6.0,8.2,44,0.00,,---,0.00,VWS V14.00,2013-10-22 15:31:00,
2013-10-22 10:36:00,51.6,31.5,29.44,SSE,154,7.4,9.9,46,0.00,,---,0.00,VWS V14.00,2013-10-22 15:36:00,
2013-10-22 10:41:00,52.0,30.8,29.44,East,95,8.7,11.5,44,0.00,,---,0.00,VWS V14.00,2013-10-22 15:41:00,
2013-10-22 10:46:00,52.0,30.8,29.44,SE,141,5.4,7.4,44,0.00,,---,0.00,VWS V14.00,2013-10-22 15:46:00,
2013-10-22 10:51:00,52.3,31.1,29.44,SSE,147,8.7,11.5,44,0.00,,---,0.00,VWS V14.00,2013-10-22 15:51:00,
2013-10-22 10:56:00,52.5,31.2,29.44,SSE,152,5.4,7.4,44,0.00,,---,0.00,VWS V14.00,2013-10-22 15:56:00,
2013-10-22 11:01:00,52.9,31.0,29.44,SSE,164,5.4,7.4,43,0.00,,---,0.00,VWS V14.00,2013-10-22 16:01:00,
2013-10-22 11:06:00,53.1,31.2,29.41,ESE,104,3.4,5.0,43,0.00,,---,0.00,VWS V14.00,2013-10-22 16:06:00,
2013-10-22 11:11:00,53.2,31.9,29.41,SE,126,6.0,8.2,44,0.00,,---,0.00,VWS V14.00,2013-10-22 16:11:00,
2013-10-22 11:16:00,53.8,31.2,29.41,SSE,162,8.7,11.5,42,0.00,,---,0.00,VWS V14.00,2013-10-22 16:16:00,
2013-10-22 11:21:00,53.8,30.6,29.41,East,90,6.0,8.2,41,0.00,,---,0.00,VWS V14.00,2013-10-22 16:21:00,
2013-10-22 11:26:00,53.8,30.6,29.41,SSE,158,6.0,8.2,41,0.00,,---,0.00,VWS V14.00,2013-10-22 16:26:00,
2013-10-22 11:31:00,54.7,31.5,29.41,SE,133,4.7,6.6,41,0.00,,---,0.00,VWS V14.00,2013-10-22 16:31:00,
2013-10-22 11:36:00,54.9,31.6,29.41,ESE,118,6.0,8.2,41,0.00,,---,0.00,VWS V14.00,2013-10-22 16:36:00,
2013-10-22 11:41:00,54.7,31.5,29.41,SSW,192,0.0,1.0,41,0.00,,---,0.00,VWS V14.00,2013-10-22 16:41:00,
2013-10-22 11:46:00,55.2,32.0,29.41,ENE,78,5.4,7.4,41,0.00,,---,0.00,VWS V14.00,2013-10-22 16:46:00,
2013-10-22 11:51:00,55.9,32.0,29.41,SSE,162,5.4,7.4,40,0.00,,---,0.00,VWS V14.00,2013-10-22 16:51:00,
2013-10-22 11:56:00,56.1,30.9,29.41,SE,139,4.0,5.8,38,0.00,,---,0.00,VWS V14.00,2013-10-22 16:56:00,
2013-10-22 12:01:00,55.9,30.7,29.41,North,8,4.0,5.8,38,0.00,,---,0.00,VWS V14.00,2013-10-22 17:01:00,
2013-10-22 12:06:00,55.9,30.7,29.41,East,87,5.4,8.2,38,0.00,,---,0.00,VWS V14.00,2013-10-22 17:06:00,
2013-10-22 12:11:00,56.3,31.0,29.41,SE,135,0.0,1.0,38,0.00,,---,0.00,VWS V14.00,2013-10-22 17:11:00,
2013-10-22 12:16:00,56.3,31.7,29.41,ENE,76,4.0,5.8,39,0.00,,---,0.00,VWS V14.00,2013-10-22 17:16:00,
2013-10-22 12:21:00,56.8,32.2,29.41,SSE,165,4.0,5.8,39,0.00,,---,0.00,VWS V14.00,2013-10-22 17:21:00,
2013-10-22 12:26:00,57.2,32.5,29.38,South,191,0.0,1.0,39,0.00,,---,0.00,VWS V14.00,2013-10-22 17:26:00,
2013-10-22 12:31:00,57.2,32.5,29.38,SE,137,9.4,12.3,39,0.00,,---,0.00,VWS V14.00,2013-10-22 17:31:00,
2013-10-22 12:36:00,57.6,31.5,29.38,SSE,151,7.4,9.9,37,0.00,,---,0.00,VWS V14.00,2013-10-22 17:36:00,
2013-10-22 12:41:00,57.9,31.8,29.38,ESE,114,5.4,7.4,37,0.00,,---,0.00,VWS V14.00,2013-10-22 17:41:00,
2013-10-22 12:46:00,57.4,31.3,29.38,NNW,338,4.0,5.8,37,0.00,,---,0.00,VWS V14.00,2013-10-22 17:46:00,
2013-10-22 12:51:00,58.5,33.0,29.35,South,169,8.1,13.1,38,0.00,,---,0.00,VWS V14.00,2013-10-22 17:51:00,
2013-10-22 12:56:00,58.6,32.5,29.35,East,79,8.1,10.7,37,0.00,,---,0.00,VWS V14.00,2013-10-22 17:56:00,
2013-10-22 13:01:00,58.8,32.6,29.35,SSW,195,4.7,6.6,37,0.00,,---,0.00,VWS V14.00,2013-10-22 18:01:00,
2013-10-22 13:06:00,59.2,33.0,29.35,SSE,157,6.0,8.2,37,0.00,,---,0.00,VWS V14.00,2013-10-22 18:06:00,
2013-10-22 13:11:00,59.7,33.4,29.35,SE,132,0.0,1.0,37,0.00,,---,0.00,VWS V14.00,2013-10-22 18:11:00,
2013-10-22 13:16:00,59.9,32.9,29.35,NNW,346,0.0,5.8,36,0.00,,---,0.00,VWS V14.00,2013-10-22 18:16:00,
2013-10-22 13:21:00,60.8,33.7,29.35,WNW,285,6.0,8.2,36,0.00,,---,0.00,VWS V14.00,2013-10-22 18:21:00,
2013-10-22 13:26:00,60.6,34.2,29.35,WSW,258,0.0,1.0,37,0.00,,---,0.00,VWS V14.00,2013-10-22 18:26:00,
2013-10-22 13:31:00,60.1,33.8,29.35,North,4,4.0,5.8,37,0.00,,---,0.00,VWS V14.00,2013-10-22 18:31:00,
2013-10-22 13:36:00,60.4,33.4,29.32,SW,227,4.7,6.6,36,0.00,,---,0.00,VWS V14.00,2013-10-22 18:36:00,
2013-10-22 13:41:00,60.4,33.4,29.32,NW,307,4.0,5.8,36,0.00,,---,0.00,VWS V14.00,2013-10-22 18:41:00,
2013-10-22 13:46:00,60.4,33.4,29.32,West,276,4.7,6.6,36,0.00,,---,0.00,VWS V14.00,2013-10-22 18:46:00,
2013-10-22 13:51:00,61.2,34.0,29.32,West,273,4.0,5.8,36,0.00,,---,0.00,VWS V14.00,2013-10-22 18:51:00,
2013-10-22 13:56:00,60.8,33.7,29.32,WNW,283,0.0,5.0,36,0.00,,---,0.00,VWS V14.00,2013-10-22 18:56:00,
2013-10-22 14:01:00,60.6,33.5,29.32,WSW,243,0.0,1.0,36,0.00,,---,0.00,VWS V14.00,2013-10-22 19:01:00,
2013-10-22 14:06:00,60.6,33.5,29.32,North,4,8.1,10.7,36,0.00,,---,0.00,VWS V14.00,2013-10-22 19:06:00,
2013-10-22 14:11:00,60.8,33.7,29.32,North,8,0.0,8.2,36,0.00,,---,0.00,VWS V14.00,2013-10-22 19:11:00,
2013-10-22 14:16:00,61.9,34.7,29.32,West,264,4.0,8.2,36,0.00,,---,0.00,VWS V14.00,2013-10-22 19:16:00,
2013-10-22 14:21:00,62.1,34.8,29.32,SSW,199,0.0,6.6,36,0.00,,---,0.00,VWS V14.00,2013-10-22 19:21:00,
2013-10-22 14:26:00,62.4,35.1,29.32,WSW,248,0.0,1.0,36,0.00,,---,0.00,VWS V14.00,2013-10-22 19:26:00,
2013-10-22 14:31:00,61.9,34.0,29.32,NNW,345,4.7,6.6,35,0.00,,---,0.00,VWS V14.00,2013-10-22 19:31:00,
2013-10-22 14:36:00,62.1,34.1,29.29,WSW,240,6.0,8.2,35,0.00,,---,0.00,VWS V14.00,2013-10-22 19:36:00,
2013-10-22 14:41:00,62.4,35.1,29.29,WSW,254,6.0,8.2,36,0.00,,---,0.00,VWS V14.00,2013-10-22 19:41:00,
2013-10-22 14:46:00,62.8,34.8,29.29,WNW,290,0.0,7.4,35,0.00,,---,0.00,VWS V14.00,2013-10-22 19:46:00,
2013-10-22 14:51:00,62.8,34.8,29.29,WNW,301,8.1,10.7,35,0.00,,---,0.00,VWS V14.00,2013-10-22 19:51:00,
2013-10-22 14:56:00,63.0,34.9,29.29,West,273,5.4,7.4,35,0.00,,---,0.00,VWS V14.00,2013-10-22 19:56:00,
2013-10-22 15:01:00,63.0,34.9,29.29,West,278,6.0,8.2,35,0.00,,---,0.00,VWS V14.00,2013-10-22 20:01:00,
2013-10-22 15:06:00,62.2,34.3,29.29,WNW,287,0.0,5.8,35,0.00,,---,0.00,VWS V14.00,2013-10-22 20:06:00,
2013-10-22 15:11:00,61.7,33.8,29.29,South,172,4.0,5.8,35,0.00,,---,0.00,VWS V14.00,2013-10-22 20:11:00,
2013-10-22 15:16:00,61.7,34.5,29.29,West,266,0.0,5.8,36,0.00,,---,0.00,VWS V14.00,2013-10-22 20:16:00,
2013-10-22 15:21:00,61.7,34.5,29.29,West,262,0.0,1.0,36,0.00,,---,0.00,VWS V14.00,2013-10-22 20:21:00,
2013-10-22 15:26:00,62.1,34.8,29.29,NNE,32,0.0,1.0,36,0.00,,---,0.00,VWS V14.00,2013-10-22 20:26:00,
2013-10-22 15:31:00,62.2,35.0,29.29,West,272,5.4,7.4,36,0.00,,---,0.00,VWS V14.00,2013-10-22 20:31:00,
2013-10-22 15:36:00,62.6,34.6,29.29,SW,215,4.7,6.6,35,0.00,,---,0.00,VWS V14.00,2013-10-22 20:36:00,
2013-10-22 15:41:00,63.0,34.9,29.29,West,270,0.0,1.0,35,0.00,,---,0.00,VWS V14.00,2013-10-22 20:41:00,
2013-10-22 15:46:00,63.0,35.6,29.29,WSW,246,5.4,7.4,36,0.00,,---,0.00,VWS V14.00,2013-10-22 20:46:00,
2013-10-22 15:51:00,63.0,34.9,29.26,SW,225,4.7,6.6,35,0.00,,---,0.00,VWS V14.00,2013-10-22 20:51:00,
2013-10-22 15:56:00,62.6,34.6,29.26,NNW,348,0.0,7.4,35,0.00,,---,0.00,VWS V14.00,2013-10-22 20:56:00,
2013-10-22 16:01:00,61.7,34.5,29.26,West,278,8.1,10.7,36,0.00,,---,0.00,VWS V14.00,2013-10-22 21:01:00,
2013-10-22 16:06:00,61.3,34.2,29.26,West,267,0.0,1.0,36,0.00,,---,0.00,VWS V14.00,2013-10-22 21:06:00,
2013-10-22 16:11:00,61.3,34.2,29.26,NW,305,5.4,7.4,36,0.00,,---,0.00,VWS V14.00,2013-10-22 21:11:00,
2013-10-22 16:16:00,61.2,34.0,29.26,SW,217,0.0,1.0,36,0.00,,---,0.00,VWS V14.00,2013-10-22 21:16:00,
2013-10-22 16:21:00,61.0,33.9,29.26,WSW,247,4.0,5.8,36,0.00,,---,0.00,VWS V14.00,2013-10-22 21:21:00,
2013-10-22 16:26:00,60.4,34.1,29.26,SSW,202,0.0,1.0,37,0.00,,---,0.00,VWS V14.00,2013-10-22 21:26:00,
2013-10-22 16:31:00,59.5,33.3,29.26,WNW,286,4.7,6.6,37,0.00,,---,0.00,VWS V14.00,2013-10-22 21:31:00,
2013-10-22 16:36:00,59.0,32.8,29.26,West,269,0.0,1.0,37,0.00,,---,0.00,VWS V14.00,2013-10-22 21:36:00,
2013-10-22 16:41:00,58.8,33.3,29.26,SW,234,0.0,1.0,38,0.00,,---,0.00,VWS V14.00,2013-10-22 21:41:00,
2013-10-22 16:46:00,58.8,33.3,29.26,SW,234,0.0,1.0,38,0.00,,---,0.00,VWS V14.00,2013-10-22 21:46:00,
2013-10-22 16:51:00,58.1,33.9,29.26,West,266,0.0,1.0,40,0.00,,---,0.00,VWS V14.00,2013-10-22 21:51:00,
2013-10-22 16:56:00,58.1,33.3,29.26,West,266,0.0,1.0,39,0.00,,---,0.00,VWS V14.00,2013-10-22 21:56:00,
2013-10-22 17:01:00,58.1,33.3,29.26,West,266,0.0,1.0,39,0.00,,---,0.00,VWS V14.00,2013-10-22 22:01:00,
2013-10-22 17:06:00,57.2,33.7,29.26,West,267,0.0,1.0,41,0.00,,---,0.00,VWS V14.00,2013-10-22 22:06:00,
2013-10-22 17:11:00,57.2,33.7,29.26,West,267,0.0,1.0,41,0.00,,---,0.00,VWS V14.00,2013-10-22 22:11:00,
2013-10-22 17:16:00,56.8,34.6,29.26,West,267,0.0,1.0,43,0.00,,---,0.00,VWS V14.00,2013-10-22 22:16:00,
2013-10-22 17:21:00,56.7,34.4,29.26,West,266,0.0,1.0,43,0.00,,---,0.00,VWS V14.00,2013-10-22 22:21:00,
2013-10-22 17:26:00,56.7,34.4,29.26,West,267,0.0,1.0,43,0.00,,---,0.00,VWS V14.00,2013-10-22 22:26:00,
2013-10-22 17:31:00,56.3,34.7,29.26,West,267,0.0,1.0,44,0.00,,---,0.00,VWS V14.00,2013-10-22 22:31:00,
2013-10-22 17:36:00,56.3,34.7,29.26,SSW,200,3.4,5.8,44,0.00,,---,0.00,VWS V14.00,2013-10-22 22:36:00,
2013-10-22 17:41:00,55.9,36.0,29.26,SSW,200,0.0,1.0,47,0.00,,---,0.00,VWS V14.00,2013-10-22 22:41:00,
2013-10-22 17:46:00,55.8,35.8,29.26,SSW,200,0.0,1.0,47,0.00,,---,0.00,VWS V14.00,2013-10-22 22:46:00,
2013-10-22 17:51:00,55.6,36.2,29.26,SSW,200,0.0,1.0,48,0.00,,---,0.00,VWS V14.00,2013-10-22 22:51:00,
2013-10-22 17:56:00,55.2,36.4,29.23,SSW,200,0.0,1.0,49,0.00,,---,0.00,VWS V14.00,2013-10-22 22:56:00,
2013-10-22 18:01:00,55.2,36.4,29.23,SSW,200,0.0,1.0,49,0.00,,---,0.00,VWS V14.00,2013-10-22 23:01:00,
2013-10-22 18:06:00,55.0,36.2,29.23,SSW,200,0.0,1.0,49,0.00,,---,0.00,VWS V14.00,2013-10-22 23:06:00,
2013-10-22 18:11:00,54.9,36.6,29.23,SSW,200,0.0,1.0,50,0.00,,---,0.00,VWS V14.00,2013-10-22 23:11:00,
2013-10-22 18:16:00,54.5,36.3,29.23,SSW,200,0.0,1.0,50,0.00,,---,0.00,VWS V14.00,2013-10-22 23:16:00,
2013-10-22 18:21:00,54.5,36.3,29.26,SSW,200,0.0,1.0,50,0.00,,---,0.00,VWS V14.00,2013-10-22 23:21:00,
2013-10-22 18:26:00,54.3,36.6,29.26,SSW,200,0.0,1.0,51,0.00,,---,0.00,VWS V14.00,2013-10-22 23:26:00,
2013-10-22 18:31:00,54.1,36.4,29.26,SSW,200,0.0,1.0,51,0.00,,---,0.00,VWS V14.00,2013-10-22 23:31:00,
2013-10-22 18:36:00,53.8,36.1,29.26,SSW,200,0.0,1.0,51,0.00,,---,0.00,VWS V14.00,2013-10-22 23:36:00,
2013-10-22 18:41:00,53.8,36.1,29.26,SSW,200,0.0,1.0,51,0.00,,---,0.00,VWS V14.00,2013-10-22 23:41:00,
2013-10-22 18:46:00,53.6,36.4,29.26,SSW,200,0.0,1.0,52,0.00,,---,0.00,VWS V14.00,2013-10-22 23:46:00,
2013-10-22 18:51:00,53.4,36.2,29.26,SSW,213,0.0,1.0,52,0.00,,---,0.00,VWS V14.00,2013-10-22 23:51:00,
2013-10-22 18:56:00,53.2,36.6,29.26,SSW,213,0.0,1.0,53,0.00,,---,0.00,VWS V14.00,2013-10-22 23:56:00,
2013-10-22 19:01:00,53.2,36.6,29.26,SW,214,0.0,1.0,53,0.00,,---,0.00,VWS V14.00,2013-10-23 00:01:00,
2013-10-22 19:06:00,53.1,36.4,29.26,SW,225,0.0,1.0,53,0.00,,---,0.00,VWS V14.00,2013-10-23 00:06:00,
2013-10-22 19:11:00,53.1,36.9,29.26,SW,225,0.0,1.0,54,0.00,,---,0.00,VWS V14.00,2013-10-23 00:11:00,
2013-10-22 19:16:00,52.9,36.7,29.26,SW,226,0.0,1.0,54,0.00,,---,0.00,VWS V14.00,2013-10-23 00:16:00,
2013-10-22 19:21:00,52.7,36.5,29.26,SW,227,0.0,1.0,54,0.00,,---,0.00,VWS V14.00,2013-10-23 00:21:00,
2013-10-22 19:26:00,52.5,36.4,29.26,SW,227,0.0,1.0,54,0.00,,---,0.00,VWS V14.00,2013-10-23 00:26:00,
2013-10-22 19:31:00,52.2,36.5,29.26,SW,227,0.0,1.0,55,0.00,,---,0.00,VWS V14.00,2013-10-23 00:31:00,
2013-10-22 19:36:00,52.2,36.5,29.26,SW,227,0.0,1.0,55,0.00,,---,0.00,VWS V14.00,2013-10-23 00:36:00,
2013-10-22 19:41:00,51.6,36.5,29.26,SW,227,0.0,1.0,56,0.00,,---,0.00,VWS V14.00,2013-10-23 00:41:00,
2013-10-22 19:46:00,51.4,36.3,29.26,SW,227,0.0,1.0,56,0.00,,---,0.00,VWS V14.00,2013-10-23 00:46:00,
2013-10-22 19:51:00,51.3,36.6,29.26,SW,227,0.0,1.0,57,0.00,,---,0.08,VWS V14.00,2013-10-23 00:51:00,
2013-10-22 19:56:00,51.1,36.4,29.26,SW,227,0.0,1.0,57,0.00,,---,0.00,VWS V14.00,2013-10-23 00:56:00,
2013-10-22 20:01:00,50.9,36.7,29.26,SW,227,0.0,1.0,58,0.00,,---,0.00,VWS V14.00,2013-10-23 01:01:00,
2013-10-22 20:06:00,50.9,36.7,29.26,SW,227,0.0,1.0,58,0.00,,---,0.00,VWS V14.00,2013-10-23 01:06:00,
2013-10-22 20:11:00,50.9,37.1,29.26,SW,227,0.0,1.0,59,0.00,,---,0.00,VWS V14.00,2013-10-23 01:11:00,
2013-10-22 20:16:00,50.9,37.1,29.26,SW,227,0.0,1.0,59,0.00,,---,0.00,VWS V14.00,2013-10-23 01:16:00,
2013-10-22 20:21:00,50.9,37.5,29.26,SW,227,0.0,1.0,60,0.00,,---,0.00,VWS V14.00,2013-10-23 01:21:00,
2013-10-22 20:26:00,50.7,37.4,29.26,SW,227,0.0,1.0,60,0.00,,---,0.00,VWS V14.00,2013-10-23 01:26:00,
2013-10-22 20:31:00,50.7,37.4,29.26,SW,227,0.0,1.0,60,0.00,,---,0.00,VWS V14.00,2013-10-23 01:31:00,
2013-10-22 20:36:00,50.5,37.6,29.26,SW,227,0.0,1.0,61,0.00,,---,0.00,VWS V14.00,2013-10-23 01:36:00,
2013-10-22 20:41:00,50.5,38.0,29.26,SW,227,0.0,1.0,62,0.00,,---,0.00,VWS V14.00,2013-10-23 01:41:00,
2013-10-22 20:46:00,50.5,38.0,29.26,SW,227,0.0,1.0,62,0.00,,---,0.00,VWS V14.00,2013-10-23 01:46:00,
2013-10-22 20:51:00,50.4,37.8,29.26,SW,227,0.0,1.0,62,0.00,,---,0.00,VWS V14.00,2013-10-23 01:51:00,
2013-10-22 20:56:00,50.2,38.1,29.23,SW,227,0.0,1.0,63,0.00,,---,0.00,VWS V14.00,2013-10-23 01:56:00,
2013-10-22 21:01:00,50.2,38.1,29.23,SW,227,0.0,1.0,63,0.00,,---,0.00,VWS V14.00,2013-10-23 02:01:00,
2013-10-22 21:06:00,50.2,38.1,29.23,SW,227,0.0,1.0,63,0.00,,---,0.00,VWS V14.00,2013-10-23 02:06:00,
2013-10-22 21:11:00,50.2,38.1,29.23,SW,227,0.0,1.0,63,0.00,,---,0.00,VWS V14.00,2013-10-23 02:11:00,
2013-10-22 21:16:00,50.5,38.8,29.23,SW,231,0.0,1.0,64,0.00,,---,0.00,VWS V14.00,2013-10-23 02:16:00,
2013-10-22 21:21:00,50.5,38.8,29.23,WSW,245,0.0,1.0,64,0.00,,---,0.00,VWS V14.00,2013-10-23 02:21:00,
2013-10-22 21:26:00,50.7,39.0,29.23,West,263,3.4,5.0,64,0.00,,---,0.00,VWS V14.00,2013-10-23 02:26:00,
2013-10-22 21:31:00,51.1,39.3,29.23,West,273,0.0,1.0,64,0.00,,---,0.00,VWS V14.00,2013-10-23 02:31:00,
2013-10-22 21:36:00,51.3,39.5,29.23,WSW,252,13.1,16.7,64,0.00,,---,0.00,VWS V14.00,2013-10-23 02:36:00,
2013-10-22 21:41:00,52.5,39.0,29.23,WNW,300,12.1,15.5,60,0.00,,---,0.00,VWS V14.00,2013-10-23 02:41:00,
2013-10-22 21:46:00,51.6,41.0,29.26,West,273,5.4,8.2,67,0.00,,---,0.00,VWS V14.00,2013-10-23 02:46:00,
2013-10-22 21:51:00,51.3,41.5,29.29,North,353,4.0,5.8,69,0.00,,---,0.00,VWS V14.00,2013-10-23 02:51:00,
2013-10-22 21:56:00,50.7,42.4,29.29,WSW,249,9.4,12.3,73,0.00,,---,0.00,VWS V14.00,2013-10-23 02:56:00,
2013-10-22 22:01:00,50.4,42.4,29.29,SW,236,4.0,5.8,74,0.00,,---,0.00,VWS V14.00,2013-10-23 03:01:00,
2013-10-22 22:06:00,50.4,42.4,29.26,SSW,207,3.4,5.0,74,0.00,,---,0.00,VWS V14.00,2013-10-23 03:06:00,
2013-10-22 22:11:00,50.2,42.2,29.26,SW,228,4.0,8.2,74,0.00,,---,0.00,VWS V14.00,2013-10-23 03:11:00,
2013-10-22 22:16:00,50.0,42.4,29.26,WSW,249,3.4,5.0,75,0.00,,---,0.00,VWS V14.00,2013-10-23 03:16:00,
2013-10-22 22:21:00,49.8,42.6,29.26,WSW,250,4.0,5.8,76,0.00,,---,0.00,VWS V14.00,2013-10-23 03:21:00,
2013-10-22 22:26:00,49.6,42.4,29.26,WSW,250,0.0,1.0,76,0.00,,---,0.04,VWS V14.00,2013-10-23 03:26:00,
2013-10-22 22:31:00,49.8,42.9,29.26,WSW,258,0.0,1.0,77,0.00,,---,0.04,VWS V14.00,2013-10-23 03:31:00,
2013-10-22 22:36:00,50.0,43.1,29.26,WSW,244,4.0,5.8,77,0.00,,---,0.04,VWS V14.00,2013-10-23 03:36:00,
2013-10-22 22:41:00,50.0,43.1,29.26,WNW,284,4.0,8.2,77,0.00,,---,0.04,VWS V14.00,2013-10-23 03:41:00,
2013-10-22 22:46:00,50.2,43.6,29.26,WNW,286,0.0,1.0,78,0.00,,---,0.04,VWS V14.00,2013-10-23 03:46:00,
2013-10-22 22:51:00,50.2,43.6,29.26,West,280,4.0,5.8,78,0.00,,---,0.04,VWS V14.00,2013-10-23 03:51:00,
2013-10-22 22:56:00,50.2,43.6,29.26,West,278,0.0,1.0,78,0.00,,---,0.04,VWS V14.00,2013-10-23 03:56:00,
2013-10-22 23:01:00,50.2,43.6,29.26,WNW,291,0.0,1.0,78,0.00,,---,0.04,VWS V14.00,2013-10-23 04:01:00,
2013-10-22 23:06:00,50.2,43.6,29.26,West,274,0.0,1.0,78,0.00,,---,0.04,VWS V14.00,2013-10-23 04:06:00,
2013-10-22 23:11:00,50.2,43.6,29.26,NW,321,4.7,6.6,78,0.00,,---,0.04,VWS V14.00,2013-10-23 04:11:00,
2013-10-22 23:16:00,50.0,43.1,29.26,WNW,291,4.0,10.7,77,0.00,,---,0.04,VWS V14.00,2013-10-23 04:16:00,
2013-10-22 23:21:00,49.8,43.2,29.29,WNW,283,4.0,5.8,78,0.00,,---,0.04,VWS V14.00,2013-10-23 04:21:00,
2013-10-22 23:26:00,49.6,43.1,29.29,WNW,299,0.0,1.0,78,0.00,,---,0.04,VWS V14.00,2013-10-23 04:26:00,
2013-10-22 23:33:00,49.5,42.9,29.29,West,275,0.0,1.0,78,0.00,,---,0.04,VWS V14.00,2013-10-23 04:33:00,
2013-10-22 23:38:00,49.3,42.7,29.29,WSW,258,4.0,5.8,78,0.00,,---,0.04,VWS V14.00,2013-10-23 04:38:00,
2013-10-22 23:43:00,49.1,42.5,29.29,NW,319,7.4,9.9,78,0.00,,---,0.04,VWS V14.00,2013-10-23 04:43:00,
2013-10-22 23:48:00,49.1,42.5,29.29,WSW,253,3.4,6.6,78,0.00,,---,0.04,VWS V14.00,2013-10-23 04:48:00,
2013-10-22 23:53:00,48.9,42.7,29.29,North,0,4.0,5.8,79,0.00,,---,0.04,VWS V14.00,2013-10-23 04:53:00,
2013-10-22 23:58:00,48.9,42.7,29.29,WNW,283,0.0,5.0,79,0.00,,---,0.04,VWS V14.00,2013-10-23 04:58:00,